This is the latest recevied weather packets stored in our database for station/object N5ZP. If no packets are shown the sender has not sent any weather packets the latest 1 day(s).
| Time | Temp. | Humidity | Pressure | Rain* | Wind** | Luminosity | Snow |
|---|---|---|---|---|---|---|---|
| 1778033933 | 18.33° C | 75% | 1005.5 hPa | 0 mm | 0.89 m/s, 232° | 0 W/m² | - |
| 1778033629 | 18.33° C | 75% | 1005.4 hPa | 0 mm | 1.79 m/s, 292° | 0 W/m² | - |
| 1778033326 | 18.89° C | 74% | 1005.4 hPa | 0 mm | 1.79 m/s, 279° | 0 W/m² | - |
| 1778033024 | 18.89° C | 74% | 1005 hPa | 0 mm | 1.34 m/s, 244° | 0 W/m² | - |
| 1778032721 | 18.89° C | 73% | 1005.1 hPa | 0 mm | 1.79 m/s, 271° | 0 W/m² | - |
| 1778032419 | 18.89° C | 73% | 1005 hPa | 0 mm | 0.89 m/s, 291° | 0 W/m² | - |
| 1778032115 | 18.89° C | 73% | 1004.8 hPa | 0 mm | 1.79 m/s, 242° | 0 W/m² | - |
| 1778031812 | 18.89° C | 72% | 1004.5 hPa | 0 mm | 1.79 m/s, 259° | 0 W/m² | - |
| 1778031509 | 18.89° C | 72% | 1004.5 hPa | 0 mm | 2.68 m/s, 293° | 0 W/m² | - |
| 1778031206 | 18.89° C | 73% | 1004.1 hPa | 0 mm | 1.79 m/s, 33° | 0 W/m² | - |
| 1778030902 | 19.44° C | 73% | 1004 hPa | 0 mm | 0.89 m/s, 245° | 0 W/m² | - |
| 1778030600 | 19.44° C | 71% | 1004 hPa | 0 mm | 2.24 m/s, 261° | 1 W/m² | - |
| 1778030297 | 19.44° C | 71% | 1004 hPa | 0 mm | 2.24 m/s, 261° | 1 W/m² | - |
| 1778029993 | 20° C | 71% | 1003.6 hPa | 0 mm | 2.68 m/s, 291° | 5 W/m² | - |
| 1778029691 | 20° C | 71% | 1003.6 hPa | 0 mm | 2.68 m/s, 291° | 5 W/m² | - |
| 1778029389 | 20° C | 71% | 1003.6 hPa | 0 mm | 2.68 m/s, 291° | 5 W/m² | - |
| 1778029086 | 20° C | 70% | 1003.5 hPa | 0 mm | 1.79 m/s, 283° | 8 W/m² | - |
| 1778028782 | 20.56° C | 70% | 1003.2 hPa | 0 mm | 2.68 m/s, 290° | 11 W/m² | - |
| 1778028478 | 21.11° C | 70% | 1002.9 hPa | 0 mm | 2.24 m/s, 3° | 13 W/m² | - |
| 1778028176 | 21.11° C | 70% | 1002.8 hPa | 0 mm | 1.79 m/s, 312° | 14 W/m² | - |
| 1778027872 | 21.11° C | 70% | 1003.1 hPa | 0 mm | 2.68 m/s, 331° | 15 W/m² | - |
| 1778027568 | 21.11° C | 69% | 1003.1 hPa | 0 mm | 1.79 m/s, 357° | 11 W/m² | - |
| 1778027265 | 21.67° C | 69% | 1003.1 hPa | 0 mm | 2.24 m/s, 191° | 14 W/m² | - |
| 1778026961 | 21.67° C | 68% | 1002.6 hPa | 0 mm | 2.68 m/s, 310° | 19 W/m² | - |
| 1778026656 | 21.67° C | 69% | 1002.7 hPa | 0 mm | 1.34 m/s, 274° | 13 W/m² | - |
* Rain latest hour (hover to see other rain measurements)
** Current wind speed in m/s (hover to see current wind gust speed)